User: anonymous   Login
Location: Brantford
(43.1330°N, 80.2670°W)
Time: 13:00:31
(UTC-05:00)
Language:

Courier 1B - Orbit

View from above orbital plane
View from above orbital plane
View from above satellite
View from above satellite

Ground track
Ground track

The orbit data is extracted from the following two-line orbital elements,

1    58U 60013A   19325.76803363  .00000085  00000-0 -13901-5 0  9992
2    58  28.3280  73.3382 0164842 141.5289 219.7134 13.46319420911000
Epoch (UTC): 21 November 2019 18:25:58
Eccentricity: 0.0164842
inclination: 28.3280°
perigee height: 963 km
apogee height: 1209 km
right ascension of ascending node: 73.3382°
argument of perigee: 141.5289°
revolutions per day: 13.46319420
mean anomaly at epoch: 219.7134°
orbit number at epoch: 91100

The dashed part of the orbit path shows where the satellite is in the earth's shadow,  

DLR